Regional Weather Roundup
Issued by NWS

Home | Current Version | Previous Version | Text Only | Print | Product List | Glossary On
Versions: 1 2 3 4 5 6 7 8 9 10 11 12 13 14 15 16 17 18 19 20 21 22 23 24 25 26 27 28 29 30 31 32 33 34 35 36 37 38 39 40 41 42 43 44 45 46 47 48 49 50
000
ASUS44 KJAN 090910
RWRMS

MISSISSIPPI HOURLY WEATHER ROUNDUP
NATIONAL WEATHER SERVICE JACKSON MS
300 AM CST FRI DEC 09 2016

NOTE: "FAIR: INDICATES FEW OR NO CLOUDS BELOW 12,000 FEET WITH NO
SIGNIFICANT WEATHER AND/OR OBSTRUCTIONS TO VISIBILITY.

MSZ001>002-007>008-010>013-018>021-025>028-034>036-091000-
NORTHWEST MISSISSIPPI

CITY           SKY/WX    TMP DP  RH WIND       PRES   REMARKS
CLEVELAND      FAIR      30  21  69 N9        30.63R WCI  22
GREENWOOD      CLEAR     24  20  84 N3        30.61R
GREENVILLE     CLEAR     30  19  63 N9        30.62R WCI  22
OXFORD         FAIR      23  16  74 N6        30.61S WCI  16
WINONA         FAIR      27  19  73 N5        30.59R WCI  21
$$

MSZ003>006-009-014>017-022>024-029>033-037>039-091000-
NORTHEAST MISSISSIPPI

CITY           SKY/WX    TMP DP  RH WIND       PRES   REMARKS
COLUMBUS AFB   CLEAR     26  20  76 NW3       30.56R
GOLDN TRIANGLE CLEAR     27  16  63 NW6       30.52S WCI  20
STARKVILLE     FAIR      27  21  80 CALM      30.58R
TUPELO         CLEAR     26  17  68 NW9       30.58R WCI  17
$$

MSZ040-058-091000-
CENTRAL MISSISSIPPI

CITY           SKY/WX    TMP DP  RH WIND       PRES   REMARKS
JACKSON INTL   CLEAR     32  21  64 N9        30.56R WCI  24
JACKSON HAWKNS CLEAR     31  19  61 MISG      30.58R
MADISON        FAIR      28  21  74 CALM      30.58R
MERIDIAN KEY   CLEAR     32  18  56 N10       30.55R WCI  24
MERIDIAN NAS   CLEAR     31  16  54 N7        30.55R WCI  24
VICKSBURG VKS  SUNNY     32  19  59 NE3       30.59S
$$

MSZ059>079-091000-
SOUTH MISSISSIPPI

CITY           SKY/WX    TMP DP  RH WIND       PRES   REMARKS
COLUMBIA       FAIR      34  23  64 N8        30.56R WCI  27
HATTIESBURG    CLOUDY    36  24  62 N12       30.53R WCI  28
LAUREL         FAIR      33  21  62 N8        30.54R WCI  25
MCCOMB         PTCLDY    35  20  54 N12G23    30.52R WCI  27
NATCHEZ        CLEAR     34  18  51 N10       30.56S WCI  26
PINE BELT      CLEAR     34  21  60 N8        30.54R WCI  27
$$

MSZ080>082-091000-
COASTAL MISSISSIPPI

CITY           SKY/WX    TMP DP  RH WIND       PRES   REMARKS
BILOXI         MOCLDY    40  27  60 N10       30.46S WCI  33
PASCAGOULA     CLEAR     39  25  57 N14       30.46F WCI  31
GULFPORT       PTCLDY    40  26  57 N9        30.47R WCI  34
$$

LAZ007>009-015>016-023>026-091000-
NORTHEAST LOUISIANA

CITY           SKY/WX    TMP DP  RH WIND       PRES   REMARKS
BASTROP        FAIR      28  21  73 CALM      30.63R
TALLULAH/VBURG CLEAR     30  21  69 N7        30.61S WCI  23
VIDALIA        FAIR      34  22  60 N12G18    30.61S WCI  26
$$



USA.gov is the U.S. government's official web portal to all federal, state and local government web resources and services.